(277213) = 2005 QC133

Discovered at Kitt Peak on 2005-08-28 by Spacewatch.

Orbit

Orbit type: Main Belt

Note: WebGL enabled browser required.

epoch2023-02-25.0
epoch JD2460000.5
perihelion date2022-05-28.60725
perihelion JD2459728.10725
argument of perihelion (°)43.27077
ascending node (°)16.79639
inclination (°)5.14818
eccentricity0.1233221
perihelion distance (AU)2.2143341
Tisserand w.r.t. Jupiter3.4
ΔV w.r.t. Earth (km/sec)9.4
semimajor axis (AU)2.5258239
mean anomaly (°)66.87977
mean daily motion (°/day)0.24552700
aphelion distance (AU)2.837
period (years)4.01
P-vector [x]0.49978351
P-vector [y]0.76820539
P-vector [z]0.40009614
Q-vector [x]-0.86576214
Q-vector [y]0.42924026
Q-vector [z]0.25731054
absolute magnitude17.3
phase slope0.15
uncertainty0
referenceMPEC 2023-D42
observations used256
oppositions13
arc length (days)7942
first opposition used2001
last opposition used2023
residual rms (arc-secs)0.81
perturbers coarse indicatorM-v
perturbers precise indicator003Ek
first observation date used2001-05-24.0
last observation date used2023-02-20.0
computer nameMPCLINUX
JD of orbit computation2456581.702834
perihelion JD uncertainty (days)2.0457E-03
argument of perihelion uncertainty (°)4.8618E-04
ascending node uncertainty (°)1.6111E-04
inclination uncertainty (°)1.5776E-05
eccentricity uncertainty 7.7059E-08
perihelion distance uncertainty (AU)1.9808E-07
Minimum Orbit Intersection Distances (in AU)
for orbit epoch: 2460000.5, reference: E2023-D42
Mercury1.90346
Venus1.49583
Earth1.22838
Mars0.68636
Jupiter2.4767
Saturn6.78673
Uranus15.7935
Neptune27.5288

Observations

269 total observations over interval: 2001 05 24.33748 – 2023 02 20.544452
These data are available for download (format description).

Date (UT) J2000 RA J2000 Dec Magn Location Ref
2001 05 24.33748 23 09 18.95 -10 03 58.0 21.7 R 807 – Cerro Tololo Observatory, La Serena MPS 284365
2001 05 24.40527 23 09 23.69 -10 03 30.7   807 – Cerro Tololo Observatory, La Serena MPS 284365
2001 09 12.33344 23 29 27.73 -07 45 08.8   704 – Lincoln Laboratory ETS, New Mexico MPS 407512
2001 09 12.34759 23 29 26.83 -07 45 11.5   704 – Lincoln Laboratory ETS, New Mexico MPS 407512
2001 09 12.36172 23 29 26.09 -07 45 13.0   704 – Lincoln Laboratory ETS, New Mexico MPS 407512
2001 09 12.37583 23 29 25.27 -07 45 17.0   704 – Lincoln Laboratory ETS, New Mexico MPS 407512
2003 02 09.25396 10 02 31.47 +19 22 40.6 21.2   644 – Palomar Mountain/NEAT MPS 284365
2003 02 09.31826 10 02 27.46 +19 22 57.0 21.0   644 – Palomar Mountain/NEAT MPS 284365
2003 02 09.38425 10 02 23.33 +19 23 13.6 20.6   644 – Palomar Mountain/NEAT MPS 284365
2005 08 28.33805 23 34 49.06 -07 51 01.6 20.5 V 691 – Steward Observatory, Kitt Peak-Spacewatch MPS 140376
2005 08 28.35876 23 34 48.00 -07 51 06.5 20.7 V 691 – Steward Observatory, Kitt Peak-Spacewatch MPS 140376
2005 08 28.37600 23 34 47.15 -07 51 10.3 20.5 V 691 – Steward Observatory, Kitt Peak-Spacewatch MPS 140376
2005 09 01.31421 23 31 30.31 -08 06 03.6 20.5 V 691 – Steward Observatory, Kitt Peak-Spacewatch MPS 140376
2005 09 01.33145 23 31 29.38 -08 06 07.5 20.4 V 691 – Steward Observatory, Kitt Peak-Spacewatch MPS 140376
2005 09 01.34878 23 31 28.44 -08 06 11.5 20.5 V 691 – Steward Observatory, Kitt Peak-Spacewatch MPS 140376
2005 09 07.87417 23 25 35.18 -08 31 14.5 19.4 V A50 – Andrushivka Astronomical Observatory MPS 175551
2005 09 07.88168 23 25 34.74 -08 31 16.5 19.7 V A50 – Andrushivka Astronomical Observatory MPS 175551
2005 09 11.29193 23 22 22.19 -08 43 56.2 20.2 V 691 – Steward Observatory, Kitt Peak-Spacewatch MPS 141772
2005 09 11.30921 23 22 21.14 -08 44 00.2 20.4 V 691 – Steward Observatory, Kitt Peak-Spacewatch MPS 141772
2005 09 11.32663 23 22 20.13 -08 44 04.3 20.3 V 691 – Steward Observatory, Kitt Peak-Spacewatch MPS 141772
2007 01 17.40046 10 14 56.20 +18 28 07.3 21.2 V 691 – Steward Observatory, Kitt Peak-Spacewatch MPS 284365
2007 01 17.41781 10 14 55.57 +18 28 11.7 20.6 V 691 – Steward Observatory, Kitt Peak-Spacewatch MPS 284365
2007 01 17.43517 10 14 54.93 +18 28 15.8 21.0 V 691 – Steward Observatory, Kitt Peak-Spacewatch MPS 284365
2007 01 26.38112 10 08 33.54 +19 06 19.2 20.8 V 691 – Steward Observatory, Kitt Peak-Spacewatch MPS 284365
2007 01 26.39896 10 08 32.65 +19 06 24.0 20.9 V 691 – Steward Observatory, Kitt Peak-Spacewatch MPS 284365
2007 01 26.41706 10 08 31.70 +19 06 28.8 21.0 V 691 – Steward Observatory, Kitt Peak-Spacewatch MPS 284365
2009 09 24.30311 23 03 18.21 -10 15 36.9 20.5 V G96 – Mt. Lemmon Survey MPS 295830
2009 09 24.31147 23 03 17.78 -10 15 38.0 20.3 V G96 – Mt. Lemmon Survey MPS 295830
2009 09 24.32003 23 03 17.31 -10 15 38.8 20.4 V G96 – Mt. Lemmon Survey MPS 295830
2009 09 24.32836 23 03 16.88 -10 15 40.3 20.1 V G96 – Mt. Lemmon Survey MPS 295830
2009 11 18.12008 22 54 34.99 -08 18 05.9 21.3 V G96 – Mt. Lemmon Survey MPS 303295
2009 11 18.12719 22 54 35.17 -08 18 03.2 20.8 V G96 – Mt. Lemmon Survey MPS 303295
2009 11 18.13421 22 54 35.42 -08 18 00.9 21.7 V G96 – Mt. Lemmon Survey MPS 303295
2009 11 18.14134 22 54 35.64 -08 17 58.1 21.3 V G96 – Mt. Lemmon Survey MPS 303295
2011 01 11.39831 10 08 40.88 +19 08 23.2 21.1 V 691 – Steward Observatory, Kitt Peak-Spacewatch MPS 365530
2011 01 11.41606 10 08 40.35 +19 08 27.0 20.7 V 691 – Steward Observatory, Kitt Peak-Spacewatch MPS 365530
2011 01 11.43380 10 08 39.77 +19 08 30.9 20.9 V 691 – Steward Observatory, Kitt Peak-Spacewatch MPS 365530
2011 01 24.41237 10 00 07.74 +20 02 03.3 20.1 V G96 – Mt. Lemmon Survey MPS 366996
2011 01 24.41959 10 00 07.30 +20 02 05.2 20.7 V G96 – Mt. Lemmon Survey MPS 366996
2011 01 24.42677 10 00 06.94 +20 02 06.6 20.2 V G96 – Mt. Lemmon Survey MPS 366996
2011 01 24.43397 10 00 06.51 +20 02 08.9 21.2 V G96 – Mt. Lemmon Survey MPS 366996
2011 01 30.54211 09 54 40.504 +20 29 15.83 20.6 w F51 – Pan-STARRS 1, Haleakala MPS 379685
2011 01 30.55733 09 54 39.604 +20 29 19.87 20.7 w F51 – Pan-STARRS 1, Haleakala MPS 379685
2011 01 30.57469 09 54 38.579 +20 29 24.32 20.6 w F51 – Pan-STARRS 1, Haleakala MPS 379685
2011 01 30.58980 09 54 37.686 +20 29 28.20 20.6 w F51 – Pan-STARRS 1, Haleakala MPS 379685
2011 02 04.31385 09 50 00.24 +20 49 41.0 19.7 V 703 – Catalina Sky Survey MPS 368538
2011 02 04.32218 09 49 59.70 +20 49 44.6 20.8 V 703 – Catalina Sky Survey MPS 368538
2011 02 04.33049 09 49 59.05 +20 49 45.7 20.7 V 703 – Catalina Sky Survey MPS 368538
2011 02 04.33885 09 49 58.54 +20 49 49.1 20.0 V 703 – Catalina Sky Survey MPS 368538
2011 02 11.43774 09 42 39.34 +21 17 06.0 19.9 V G96 – Mt. Lemmon Survey MPS 369500
2011 02 11.44358 09 42 38.98 +21 17 07.2 20.4 V G96 – Mt. Lemmon Survey MPS 369500
2011 02 11.44940 09 42 38.59 +21 17 08.4 20.2 V G96 – Mt. Lemmon Survey MPS 369500
2011 02 11.45524 09 42 38.23 +21 17 09.7 20.4 V G96 – Mt. Lemmon Survey MPS 369500
2013 08 30.43412 23 17 17.264 -10 00 01.77 21.0 g F51 – Pan-STARRS 1, Haleakala MPS 476031
2013 08 30.44605 23 17 16.606 -10 00 04.77 20.9 g F51 – Pan-STARRS 1, Haleakala MPS 476031
2013 09 01.42575 23 15 29.907 -10 07 52.91 20.1 w F51 – Pan-STARRS 1, Haleakala MPS 476031
2013 09 01.46687 23 15 27.558 -10 08 02.52 20.3 w F51 – Pan-STARRS 1, Haleakala MPS 476031
2013 09 10.43641 23 07 02.130 -10 41 49.68 20.7 g F51 – Pan-STARRS 1, Haleakala MPS 477562
2013 09 10.44805 23 07 01.428 -10 41 52.18 20.8 g F51 – Pan-STARRS 1, Haleakala MPS 477562
2013 09 12.25806 23 05 18.30 -10 48 04.7 20.3 V 703 – Catalina Sky Survey MPS 477562
2013 09 12.26527 23 05 17.92 -10 48 05.4 20.4 V 703 – Catalina Sky Survey MPS 477562
2013 09 12.27971 23 05 17.02 -10 48 09.4 19.1 V 703 – Catalina Sky Survey MPS 477562
2013 09 22.40169 22 56 04.556 -11 16 32.54 20.2 i F51 – Pan-STARRS 1, Haleakala MPS 478623
2013 09 22.40985 22 56 04.108 -11 16 33.83 20.3 i F51 – Pan-STARRS 1, Haleakala MPS 478623
2015 01 17.41902 09 56 59.528 +20 25 49.03 20.5 w F51 – Pan-STARRS 1, Haleakala MPS 566853
2015 01 17.43103 09 56 59.003 +20 25 52.19 20.7 w F51 – Pan-STARRS 1, Haleakala MPS 566853
2015 01 17.44307 09 56 58.470 +20 25 55.32 20.6 w F51 – Pan-STARRS 1, Haleakala MPS 566853
2015 01 19.42738 09 55 31.67 +20 34 29.0 20.6 r G45 – Space Surveillance Telescope, Atom Site MPS 579487
2015 01 19.43163 09 55 31.45 +20 34 30.0 19.9 r G45 – Space Surveillance Telescope, Atom Site MPS 579487
2015 01 19.43594 09 55 31.23 +20 34 30.2 20.7 r G45 – Space Surveillance Telescope, Atom Site MPS 579487
2015 01 19.44224 09 55 30.83 +20 34 31.5 19.8 r G45 – Space Surveillance Telescope, Atom Site MPS 579487
2015 01 20.38164 09 54 48.210 +20 38 39.09 20.5 w F51 – Pan-STARRS 1, Haleakala MPS 566853
2015 01 20.39371 09 54 47.627 +20 38 42.38 20.5 w F51 – Pan-STARRS 1, Haleakala MPS 566853
2015 01 20.40593 09 54 47.037 +20 38 45.65 20.5 w F51 – Pan-STARRS 1, Haleakala MPS 566853
2015 01 20.41226 09 54 46.44 +20 38 46.1 20.4 r G45 – Space Surveillance Telescope, Atom Site MPS 579487
2015 01 20.41802 09 54 46.445 +20 38 49.01 20.6 w F51 – Pan-STARRS 1, Haleakala MPS 566853
2015 01 20.42503 09 54 45.76 +20 38 49.4 20.2 r G45 – Space Surveillance Telescope, Atom Site MPS 579487
2015 01 20.42931 09 54 45.67 +20 38 51.1 20.7 r G45 – Space Surveillance Telescope, Atom Site MPS 579487
2015 01 20.43365 09 54 45.36 +20 38 52.1 20.9 r G45 – Space Surveillance Telescope, Atom Site MPS 579487
2015 01 20.43995 09 54 45.07 +20 38 53.6 20.6 r G45 – Space Surveillance Telescope, Atom Site MPS 579487
2015 01 22.40263 09 53 10.884 +20 47 34.27 20.5 w F51 – Pan-STARRS 1, Haleakala MPS 566853
2015 01 22.41481 09 53 10.260 +20 47 37.47 20.5 w F51 – Pan-STARRS 1, Haleakala MPS 566853
2015 01 22.42696 09 53 09.629 +20 47 40.72 20.5 w F51 – Pan-STARRS 1, Haleakala MPS 566853
2015 01 22.43914 09 53 08.997 +20 47 44.13 20.5 w F51 – Pan-STARRS 1, Haleakala MPS 566853
2015 01 24.40122 09 51 28.80 +20 56 25.6 20.6 r G45 – Space Surveillance Telescope, Atom Site MPS 579487
2015 01 24.40536 09 51 28.56 +20 56 26.3 20.9 r G45 – Space Surveillance Telescope, Atom Site MPS 579487
